Tarboro, NC

8:54 AM EDT on June 23, 2017 (GMT -0400)
Tarboro-edgecombe

Weather History for KETC - April, 2014

Change the Weather History Date:

Monday, April 7, 2014

  Actual Average Record
Temperature  
Mean Temperature 58 °F -  
Max Temperature 87 °F 69 °F 90 °F (1967)
Min Temperature 49 °F 40 °F 28 °F (1982)
Degree Days  
Heating Degree Days 6    
Growing Degree Days 8 (Base 50)    
Moisture  
Dew Point 53 °F    
Average Humidity 81    
Maximum Humidity 95    
Minimum Humidity 52    
Precipitation  
Precipitation 0.21 in - - ()
Sea Level Pressure  
Sea Level Pressure 29.91 in    
Wind  
Wind Speed 5 mph (SSE)    
Max Wind Speed 14 mph    
Max Gust Speed 22 mph    
Visibility 9 miles    
Events Rain    
Averages and records for this station are not official NWS values.
T = Trace of Precipitation, MM = Missing Value Source: NWS Daily Summary

Daily Weather History Graph

Daily Weather History Graph

Search for Another Location

Airport or City:

Trip Planner

Search our weather history database for the weather conditions in past years. The results will help you decide how hot, cold, wet, or windy it might be!

Date:

Astronomy

Apr. 07, 2014 Rise Set
Actual Time 6:48 AM EDT 7:37 PM EDT
Civil Twilight 6:22 AM EDT 8:03 PM EDT
Nautical Twilight 5:51 AM EDT 8:33 PM EDT
Astronomical Twilight 5:19 AM EDT 9:05 PM EDT
Moon 12:47 PM EDT (4/7) 2:07 AM EDT (4/7)
Length of Visible Light 13h 41m
Length of Day
12h 48m
First Quarter, 53% of the Moon is Illuminated
Apr 7
First Quarter
Apr 15
Full
Apr 22
Last Quarter
Apr 29
New
May 6
First Quarter

Hourly Weather History & Observations

Time (EDT) Temp. Dew Point Humidity Pressure Visibility Wind Dir Wind Speed Gust Speed Precip Events Conditions
12:15 AM 50.9 °F 34.0 °F 52% 30.15 in 10.0 mi ENE 4.6 mph - N/A Rain Light Rain
12:35 AM 50.0 °F 34.9 °F 56% 30.14 in 10.0 mi ENE 8.1 mph - N/A   Light Drizzle
12:55 AM 49.6 °F 35.6 °F 59% 30.13 in 10.0 mi ENE 6.9 mph - N/A Rain Light Rain
1:15 AM 49.6 °F 35.6 °F 59% 30.12 in 10.0 mi ENE 5.8 mph - N/A   Overcast
1:35 AM 49.6 °F 36.0 °F 59% 30.12 in 10.0 mi ENE 5.8 mph - N/A   Overcast
1:55 AM 49.6 °F 36.7 °F 61% 30.11 in 10.0 mi ENE 5.8 mph - N/A   Overcast
2:15 AM 49.6 °F 37.4 °F 63% 30.10 in 10.0 mi ENE 5.8 mph - N/A   Overcast
2:35 AM 50.0 °F 38.1 °F 64% 30.09 in 10.0 mi ENE 6.9 mph - N/A   Overcast
2:55 AM 50.0 °F 39.2 °F 66% 30.09 in 10.0 mi NE 3.5 mph - N/A   Overcast
3:15 AM 50.2 °F 39.9 °F 68% 30.08 in 10.0 mi NE 4.6 mph - N/A   Overcast
3:35 AM 50.2 °F 40.1 °F 68% 30.07 in 10.0 mi ENE 3.5 mph - N/A Rain Light Rain
3:55 AM 49.8 °F 41.7 °F 74% 30.05 in 10.0 mi ENE 3.5 mph - N/A   Drizzle
4:15 AM 49.3 °F 43.2 °F 79% 30.03 in 10.0 mi ENE 4.6 mph - N/A   Light Drizzle
4:35 AM 49.5 °F 43.9 °F 81% 30.03 in 10.0 mi ENE 3.5 mph - N/A   Overcast
4:55 AM 49.8 °F 44.4 °F 82% 30.01 in 10.0 mi ENE 4.6 mph - N/A   Overcast
5:15 AM 50.4 °F 44.8 °F 81% 30.00 in 10.0 mi ENE 6.9 mph - N/A   Overcast
5:35 AM 50.9 °F 45.5 °F 82% 30.01 in 10.0 mi East 4.6 mph - N/A Rain Light Rain
5:55 AM 50.9 °F 46.4 °F 85% 30.00 in 10.0 mi ENE 4.6 mph - N/A   Drizzle
6:15 AM 50.5 °F 47.1 °F 88% 30.00 in 10.0 mi NE 3.5 mph - N/A   Light Drizzle
6:35 AM 50.7 °F 47.7 °F 89% 30.01 in 10.0 mi ENE 4.6 mph - N/A   Overcast
6:55 AM 50.9 °F 48.2 °F 90% 30.00 in 10.0 mi ENE 3.5 mph - N/A   Overcast
7:15 AM 51.1 °F 48.6 °F 91% 30.01 in 10.0 mi Calm Calm - 0.01 in Rain Rain
7:35 AM 51.4 °F 49.1 °F 92% 30.01 in 5.0 mi Calm Calm - 0.03 in Rain Rain
8:15 AM 52.0 °F 50.2 °F 94% 30.00 in 5.0 mi Calm Calm - 0.02 in Rain Light Rain
8:35 AM 52.0 °F 50.4 °F 94% 29.99 in 5.0 mi Calm Calm - 0.03 in Rain Light Rain
8:55 AM 52.5 °F 50.9 °F 94% 29.96 in 4.0 mi Calm Calm - 0.05 in Rain Light Rain
9:15 AM 53.6 °F 52.2 °F 95% 29.97 in 7.0 mi Calm Calm - N/A   Overcast
9:35 AM 54.5 °F 52.9 °F 94% 29.97 in 7.0 mi Calm Calm - N/A   Overcast
9:55 AM 54.9 °F 53.2 °F 94% 29.96 in 7.0 mi East 3.5 mph - N/A Rain Light Rain
10:15 AM 55.6 °F 54.1 °F 95% 29.95 in 5.0 mi Calm Calm - N/A   Light Drizzle
10:35 AM 56.7 °F 55.0 °F 94% 29.95 in 5.0 mi Calm Calm - 0.01 in Rain Light Rain
10:55 AM 58.6 °F 57.0 °F 94% 29.93 in 5.0 mi SE 4.6 mph - 0.01 in Rain Light Rain
11:15 AM 60.1 °F 58.5 °F 94% 29.93 in 5.0 mi SE 5.8 mph - 0.01 in   Light Drizzle
11:55 AM 62.2 °F 60.6 °F 94% 29.90 in 5.0 mi SE 6.9 mph - 0.01 in   Overcast
12:15 PM 63.7 °F 61.5 °F 93% 29.89 in 5.0 mi SE 6.9 mph - N/A   Overcast
12:35 PM 64.8 °F 62.6 °F 93% 29.88 in 7.0 mi SE 5.8 mph - N/A Rain Light Rain
12:55 PM 65.7 °F 63.1 °F 92% 29.87 in 4.0 mi South 3.5 mph - 0.02 in Rain Heavy Rain
1:15 PM 63.7 °F 61.3 °F 92% 29.90 in 5.0 mi West 9.2 mph 17.3 mph 0.08 in Rain Rain
1:35 PM 60.8 °F 58.8 °F 93% 29.89 in 10.0 mi West 5.8 mph - 0.09 in Rain Light Rain
1:55 PM 60.6 °F 58.5 °F 93% 29.90 in 10.0 mi WSW 8.1 mph - 0.09 in   Mostly Cloudy
2:15 PM 59.7 °F 57.6 °F 93% 29.89 in 10.0 mi West 6.9 mph - N/A   Overcast
2:35 PM 59.4 °F 57.0 °F 92% 29.88 in 10.0 mi WSW 4.6 mph - N/A   Overcast
2:55 PM 59.9 °F 57.4 °F 91% 29.86 in 10.0 mi SSW 3.5 mph - N/A   Overcast
3:15 PM 60.6 °F 57.7 °F 90% 29.83 in 10.0 mi SW 3.5 mph - N/A   Mostly Cloudy
3:35 PM 62.2 °F 59.0 °F 89% 29.83 in 10.0 mi SW 5.8 mph - N/A   Scattered Clouds
3:55 PM 63.7 °F 59.9 °F 87% 29.82 in 10.0 mi South 3.5 mph - N/A   Scattered Clouds
4:35 PM 65.7 °F 60.4 °F 83% 29.82 in 10.0 mi SW 9.2 mph 16.1 mph N/A   Scattered Clouds
4:55 PM 65.8 °F 60.1 °F 82% 29.81 in 10.0 mi SW 6.9 mph - N/A   Clear
5:15 PM 67.1 °F 60.3 °F 79% 29.79 in 10.0 mi SSW 9.2 mph - N/A   Clear
5:35 PM 67.8 °F 59.7 °F 75% 29.79 in 10.0 mi SSW 8.1 mph - N/A   Clear
5:55 PM 67.1 °F 59.4 °F 76% 29.78 in 10.0 mi SSW 9.2 mph - N/A   Clear
6:15 PM 66.7 °F 59.5 °F 78% 29.78 in 10.0 mi SSW 8.1 mph - N/A   Clear
6:35 PM 66.9 °F 59.7 °F 78% 29.78 in 10.0 mi SSW 10.4 mph 16.1 mph N/A   Clear
6:55 PM 67.6 °F 58.6 °F 73% 29.71 in 10.0 mi SSE 13.8 mph 21.9 mph N/A   Scattered Clouds
7:15 PM 68.4 °F 57.7 °F 69% 29.76 in 10.0 mi SSW 10.4 mph 17.3 mph N/A   Scattered Clouds
7:35 PM 68.9 °F 56.8 °F 65% 29.75 in 10.0 mi SW 9.2 mph 18.4 mph N/A Rain Light Rain
7:55 PM 68.2 °F 57.4 °F 68% 29.75 in 10.0 mi South 9.2 mph - N/A   Light Drizzle
8:15 PM 68.4 °F 56.8 °F 67% 29.73 in 10.0 mi South 9.2 mph 19.6 mph N/A   Scattered Clouds
8:35 PM 68.4 °F 56.8 °F 67% 29.75 in 10.0 mi South 9.2 mph 16.1 mph N/A   Mostly Cloudy
8:55 PM 67.6 °F 57.6 °F 70% 29.75 in 10.0 mi South 5.8 mph 16.1 mph N/A   Scattered Clouds
9:15 PM 66.9 °F 58.8 °F 75% 29.74 in 10.0 mi South 8.1 mph - N/A   Mostly Cloudy
9:35 PM 66.4 °F 59.5 °F 79% 29.73 in 10.0 mi South 5.8 mph - N/A   Mostly Cloudy
9:55 PM 66.2 °F 59.9 °F 80% 29.75 in 10.0 mi WSW 5.8 mph - N/A   Scattered Clouds
10:15 PM 66.2 °F 59.5 °F 79% 29.74 in 10.0 mi SSW 5.8 mph - N/A   Scattered Clouds
10:35 PM 66.2 °F 59.4 °F 79% 29.73 in 10.0 mi South 9.2 mph - N/A Rain Light Rain
10:55 PM 66.2 °F 59.9 °F 80% 29.72 in 10.0 mi South 10.4 mph 16.1 mph N/A   Clear
11:15 PM 66.4 °F 59.9 °F 80% 29.72 in 10.0 mi South 12.7 mph 18.4 mph N/A   Clear
11:35 PM 66.6 °F 59.5 °F 78% 29.72 in 10.0 mi South 11.5 mph 16.1 mph N/A   Clear
11:55 PM 66.6 °F 59.4 °F 78% 29.72 in 10.0 mi South 8.1 mph 16.1 mph N/A   Clear